GFSMA_sfc_30mbdewp_000.txt.gz
Dewpoint
51 52 51 50 50 49 50 49 52 51 48 49 49 46 43 39 38 40 43 47 51 53 52 48 48 49 51 55 58 60 60 61 61 62 62 63 62 62 62 61 63 63 62
53 52 51 50 50 51 51 49 48 48 48 49 49 48 46 42 38 38 41 44 51 51 51 50 48 48 48 50 54 58 58 60 60 61 62 61 61 61 62 61 62 62 62
51 50 47 47 48 49 48 48 48 49 48 47 47 48 48 47 43 40 39 41 45 51 51 49 49 49 48 48 52 55 58 59 59 59 61 61 60 61 61 62 62 62 62
47 45 42 42 45 45 45 44 45 45 44 45 45 45 46 47 46 44 43 42 43 45 49 50 49 49 50 48 48 50 54 56 57 57 59 60 60 60 62 62 62 60 61
43 41 41 41 43 44 42 43 41 43 41 41 40 38 42 44 45 46 45 44 43 44 44 45 50 49 50 52 49 48 50 51 52 54 56 58 58 60 61 61 61 61 61
41 40 41 42 44 42 39 39 38 39 40 42 38 37 39 40 42 44 47 46 47 47 46 44 43 49 51 52 53 49 47 48 49 51 52 54 56 57 59 60 60 60 60
42 41 42 43 42 40 39 38 40 39 37 39 36 36 37 36 40 41 45 44 44 43 42 43 45 44 48 51 53 49 46 46 47 47 48 51 53 56 57 59 60 59 60
40 39 38 39 40 38 37 38 40 38 39 40 38 39 31 34 34 39 41 39 42 41 42 42 43 46 45 45 51 52 48 45 45 45 48 49 51 53 53 54 56 59 59
38 37 37 38 39 39 37 37 39 39 38 41 42 39 36 35 37 38 36 34 37 37 40 43 40 38 45 44 44 46 51 50 48 47 47 48 47 47 49 51 52 53 55
36 36 36 38 39 38 38 39 40 40 39 38 40 39 39 37 34 33 34 34 35 35 37 40 37 38 46 46 45 46 46 47 49 47 46 44 43 43 45 48 51 52 52
35 36 37 37 36 38 37 39 40 39 40 39 39 38 37 37 37 34 30 32 33 33 35 36 36 39 40 47 46 46 45 46 45 44 44 42 42 43 43 44 48 50 51
34 36 36 35 35 37 36 37 36 36 36 36 36 36 37 35 34 34 32 33 31 32 34 34 35 36 38 43 47 44 43 44 45 45 44 45 45 46 46 47 46 47 50
34 36 36 36 36 36 35 35 34 33 35 35 35 35 36 36 36 35 34 34 33 32 33 34 34 33 36 37 42 46 45 45 43 44 46 44 42 43 45 47 50 50 46
35 37 36 34 33 33 33 34 33 33 33 32 32 33 34 35 35 35 35 33 30 30 31 31 32 31 32 33 37 41 43 43 43 45 44 44 43 40 38 39 41 45 48
35 35 35 32 32 32 33 33 32 32 32 31 31 32 32 33 34 35 36 33 30 26 29 30 29 30 30 32 32 36 40 41 43 42 42 42 42 42 38 33 34 37 41
34 33 31 30 30 30 31 32 31 31 31 32 32 32 31 31 30 31 32 34 33 30 27 30 29 27 28 28 27 30 35 35 40 43 42 41 36 38 35 34 30 31 34
32 31 30 28 26 25 25 26 28 31 32 27 25 23 22 23 21 23 23 25 30 32 30 28 29 24 23 23 23 25 30 31 36 37 37 40 38 34 32 30 28 28 27
30 28 27 25 22 22 22 23 26 25 22 21 20 20 20 19 19 19 20 21 24 24 26 25 22 21 20 21 22 24 26 27 33 32 37 39 38 35 32 30 28 28 27
24 23 22 19 19 21 22 24 23 22 20 20 20 19 18 18 17 18 19 22 22 21 22 19 19 21 20 20 20 25 24 25 26 28 28 35 37 36 33 31 29 28 27
33 25 17 18 20 22 23 21 20 20 20 19 19 19 18 17 18 20 22 23 23 22 21 19 20 19 19 18 21 22 21 22 23 27 27 27 30 34 34 35 35 32 31
33 20 16 18 21 22 22 20 20 19 18 18 18 18 16 17 17 19 23 28 27 25 21 19 18 18 16 16 17 21 19 20 20 27 25 25 25 26 31 31 33 34 34
23 14 16 20 21 21 24 23 21 19 18 18 17 18 19 18 19 21 22 22 22 24 24 24 19 17 17 17 19 19 19 18 16 25 24 23 25 23 25 29 31 32 31
17 15 19 21 21 21 24 25 24 20 20 19 20 20 19 18 20 23 23 22 21 22 23 23 22 21 20 20 20 19 19 20 20 24 25 23 24 22 24 25 28 26 26
18 18 22 23 22 22 24 27 26 25 23 22 22 21 20 19 19 19 20 24 23 24 23 22 21 22 23 23 22 21 21 23 26 26 25 21 24 23 24 25 26 30 29
17 23 23 23 24 26 26 26 26 22 21 20 20 20 19 20 21 23 24 22 21 20 20 21 24 25 26 28 28 26 25 24 21 21 24 22 21 20 21 22 24 27 27
22 22 21 22 22 19 23 21 20 20 17 19 19 18 18 18 20 22 23 23 20 19 20 20 21 21 21 21 20 22 23 23 23 21 21 21 20 20 19 22 22 23 26

GFSMA_sfc_30mbdewp_003.txt.gz
Dewpoint
52 52 51 51 50 51 50 50 49 49 48 48 49 49 48 46 44 41 42 45 48 51 52 51 50 49 50 52 55 58 58 59 60 60 61 62 61 61 61 60 60 62 62
52 52 50 48 48 50 49 49 49 49 49 48 46 48 48 47 46 43 42 41 44 49 53 52 50 50 49 50 53 55 57 58 58 59 60 61 61 61 61 61 60 59 60
51 47 45 43 45 47 46 45 46 46 43 43 43 44 44 44 45 45 44 43 43 45 49 54 55 54 53 51 51 53 56 58 58 57 58 60 61 60 60 61 61 60 59
45 44 41 40 43 45 44 42 43 38 40 41 40 40 39 42 43 46 46 45 45 46 46 48 52 54 55 53 51 50 51 55 58 57 57 59 60 60 60 59 58 60 59
41 40 40 42 44 42 40 40 38 39 39 38 37 38 37 38 40 46 45 44 44 43 42 43 47 47 49 51 51 50 48 49 53 54 55 57 58 58 59 59 59 58 59
41 41 41 42 42 38 37 38 38 39 39 39 37 35 35 34 38 45 43 43 41 41 40 41 42 44 47 48 49 50 49 47 48 50 52 53 55 56 57 58 58 58 59
38 38 39 38 38 36 37 38 38 37 36 40 36 34 32 32 35 42 43 42 40 40 38 39 40 37 39 44 45 47 51 49 48 48 51 53 53 54 55 56 57 58 59
37 36 37 38 38 36 36 37 38 37 38 41 39 38 33 34 38 37 38 38 38 40 40 38 37 32 30 42 45 46 46 51 51 48 50 52 52 52 53 52 52 54 56
36 36 37 38 38 37 36 38 39 39 38 39 40 38 35 34 36 36 34 35 36 35 36 38 39 34 33 41 44 46 47 46 48 51 50 50 51 49 49 48 49 52 53
36 37 37 37 36 37 37 39 39 38 39 37 38 38 37 37 33 31 33 32 35 33 35 36 37 35 37 38 44 47 47 45 46 48 50 47 48 46 44 44 46 48 51
36 36 35 35 35 36 35 35 35 34 34 33 33 35 36 35 36 34 30 30 32 33 33 36 35 36 36 37 42 46 46 45 46 47 47 45 44 42 42 43 44 45 49
35 36 36 36 35 35 34 33 33 32 33 33 34 34 35 33 33 33 31 30 31 32 33 34 35 34 34 36 38 38 46 45 44 45 46 46 45 45 45 46 47 48 46
35 36 36 35 35 34 33 32 30 30 30 29 30 31 32 31 34 33 31 28 30 28 31 34 34 34 34 35 35 37 42 45 45 44 45 46 46 44 43 44 45 48 50
35 37 36 33 32 32 32 32 30 30 30 28 26 28 29 30 31 31 30 29 24 25 26 26 33 32 33 33 35 37 40 42 43 44 44 44 43 43 43 38 38 40 45
36 36 34 33 34 32 31 32 29 28 29 29 28 29 30 28 26 27 28 29 29 23 21 26 29 29 32 31 31 33 36 35 37 43 44 44 44 44 44 40 33 34 38
35 34 34 35 31 29 29 29 28 28 29 29 30 28 24 25 22 24 21 22 24 28 24 28 28 29 30 25 23 29 30 35 34 38 39 39 43 41 42 39 39 32 32
33 33 32 29 28 26 24 23 23 26 29 27 23 22 20 21 20 20 20 20 20 22 23 23 27 29 26 23 22 27 28 29 36 35 34 36 39 41 39 41 38 33 29
29 30 31 31 26 21 21 22 24 26 22 20 19 20 18 17 16 18 18 18 20 21 22 20 25 23 21 22 22 23 25 25 27 30 32 35 37 41 39 37 29 29 30
27 30 33 25 19 20 21 23 24 21 19 20 19 18 18 17 16 16 18 20 21 22 22 21 20 21 22 21 18 25 22 23 23 28 31 34 36 38 39 36 33 29 29
33 31 29 23 20 21 22 23 20 19 20 19 19 19 19 17 16 18 18 25 26 26 25 22 21 20 20 18 22 19 18 21 19 25 27 29 31 33 36 35 32 32 30
31 31 27 17 20 21 22 20 19 20 19 19 19 19 18 18 19 17 18 21 22 25 24 23 22 19 17 16 15 20 18 19 19 25 24 25 25 25 29 33 35 35 33
32 22 12 18 21 21 23 23 23 20 20 19 20 19 20 20 19 17 19 20 20 23 23 23 23 22 23 18 19 18 19 17 15 24 25 24 25 22 23 27 32 32 34
20 18 18 21 21 21 24 26 27 25 23 22 23 22 19 17 18 19 19 19 20 21 23 23 23 22 20 20 20 19 19 18 19 20 25 22 24 22 23 24 27 30 29
30 18 22 23 23 26 27 27 27 23 21 20 19 19 19 19 21 19 23 22 23 21 22 23 24 23 22 22 22 21 20 20 23 25 26 23 23 22 25 26 26 28 29
23 23 23 22 21 19 23 22 21 20 18 17 18 18 18 18 18 22 23 22 22 21 20 19 19 21 24 27 27 25 23 22 19 21 24 22 21 21 21 22 23 27 28
22 20 20 19 17 16 19 17 17 19 16 17 17 17 17 18 20 18 20 21 20 18 19 20 20 21 22 20 20 22 23 22 22 21 22 22 21 20 18 21 22 23 25

GFSMA_sfc_30mbdewp_009.txt.gz
Dewpoint
56 54 53 51 50 49 48 48 48 49 47 46 46 43 41 39 39 39 42 50 51 52 52 53 54 54 55 55 56 57 58 57 55 55 58 60 61 61 60 60 60 59 58
55 53 47 45 45 47 46 45 47 44 43 41 41 41 38 38 39 41 41 44 45 46 46 46 47 48 51 52 53 54 55 58 57 55 57 58 60 61 60 60 59 60 60
50 47 45 46 46 46 43 43 42 41 40 37 36 36 35 37 36 44 42 40 39 41 42 42 42 41 42 43 46 50 52 54 55 58 56 58 59 60 60 60 59 59 59
47 46 44 44 43 41 40 40 39 37 37 36 34 33 34 34 39 45 41 39 38 37 38 39 39 38 38 39 40 43 46 50 53 54 57 57 58 59 60 59 59 58 58
44 44 42 42 41 39 39 37 37 37 35 33 27 29 29 27 41 41 40 40 39 38 36 35 35 34 36 37 37 39 42 45 49 51 54 55 57 58 59 59 58 57 57
41 40 40 40 38 37 37 36 35 34 35 35 26 28 27 32 41 41 39 38 37 37 36 35 34 31 33 35 36 37 40 42 43 46 50 54 55 56 57 58 57 56 56
39 40 38 37 37 35 37 36 32 29 27 35 27 24 23 36 38 36 37 37 35 34 34 33 31 30 30 33 33 37 37 40 43 43 44 48 53 56 56 56 55 54 55
37 36 37 36 37 36 38 37 34 28 32 38 28 25 20 22 27 35 33 34 34 33 32 31 32 31 31 31 32 36 36 40 41 43 45 45 47 51 55 56 54 53 53
35 36 38 38 38 37 36 37 37 34 29 33 38 27 23 21 28 27 29 31 31 29 30 31 29 29 32 34 34 34 34 38 37 41 45 46 45 47 52 54 54 51 51
37 36 37 38 38 38 38 36 35 34 32 27 28 32 32 31 24 21 22 23 27 23 25 30 25 29 30 32 35 36 37 36 36 38 44 46 46 44 49 52 52 49 49
38 37 37 38 38 36 37 35 33 30 27 24 24 24 25 23 24 22 15 16 17 17 21 20 26 23 25 30 32 31 33 36 38 39 44 46 47 46 47 51 50 46 47
38 38 37 38 37 36 33 31 31 30 26 24 22 21 18 16 15 19 17 15 13 13 15 19 21 20 19 23 29 32 32 34 36 40 44 46 47 46 46 47 46 47 47
32 36 38 37 36 33 33 32 29 28 26 21 21 18 21 20 21 20 19 16 17 16 15 17 18 19 18 19 28 31 31 32 35 40 44 45 46 45 44 46 47 48 50
29 37 38 36 36 36 34 34 31 29 29 27 26 27 25 23 28 27 23 22 19 16 14 14 17 19 20 19 21 29 31 30 32 39 41 42 45 45 44 40 41 43 46
34 38 37 35 37 34 34 31 30 30 29 29 28 28 27 26 28 25 23 23 21 19 17 14 13 15 16 17 20 22 29 30 31 35 40 40 41 44 45 44 38 37 36
35 38 36 36 33 35 31 31 29 29 27 27 26 28 26 24 23 23 22 21 19 17 15 13 12 13 15 15 18 18 26 31 31 31 36 39 40 41 43 45 45 42 37
34 36 36 33 34 31 30 29 27 25 25 25 28 25 23 22 20 19 19 16 15 14 13 13 12 15 19 20 19 19 26 28 30 28 33 37 37 39 40 43 42 42 41
32 33 33 32 32 33 31 26 24 22 24 24 23 21 21 20 20 20 18 16 15 16 14 12 15 19 18 21 21 23 24 24 29 32 30 36 37 38 38 39 40 39 40
30 30 32 33 31 29 26 23 24 25 24 22 21 21 21 21 20 19 18 17 17 16 16 18 14 14 17 19 21 22 24 23 24 27 27 29 34 36 37 38 40 39 38
33 33 33 33 32 26 22 23 23 22 21 21 22 22 22 22 20 18 20 21 18 19 16 16 16 14 15 15 22 20 19 20 19 17 19 25 27 31 34 36 38 39 38
34 32 29 21 22 22 21 22 21 22 24 23 22 20 19 20 20 18 17 17 16 17 17 16 14 13 14 14 21 24 20 17 18 19 18 19 24 24 29 35 37 39 37
33 28 26 24 23 23 27 29 26 22 20 17 15 14 14 13 14 16 17 18 19 18 18 18 21 13 12 15 18 23 24 21 15 22 20 16 22 22 23 25 34 36 37
32 32 26 25 26 25 25 26 23 17 15 15 14 12 13 13 15 15 15 17 21 21 19 19 19 15 14 15 19 21 21 21 19 18 19 15 19 17 20 19 25 33 32
30 31 26 24 23 21 22 20 20 17 15 14 13 14 14 14 15 16 19 18 16 14 16 19 21 20 17 16 17 23 19 20 19 19 19 17 16 21 19 20 25 27 31
28 27 24 22 16 17 18 18 17 17 16 15 15 15 15 14 15 18 15 16 14 12 17 17 21 22 22 21 20 20 22 20 17 14 14 18 16 19 21 22 23 23 28
19 22 21 17 16 16 17 17 17 18 17 16 15 14 15 16 18 15 14 15 14 17 15 15 16 16 17 18 20 20 17 19 21 16 14 18 15 17 16 23 24 24 26

GFSMA_sfc_30mbdewp_012.txt.gz
Dewpoint
58 56 53 50 48 46 45 44 44 43 42 40 43 41 39 39 39 38 39 48 49 49 50 50 49 49 50 51 53 54 55 56 57 55 56 58 59 61 60 61 60 60 60
58 56 50 46 45 45 43 41 42 39 39 38 37 40 38 37 36 39 36 42 45 46 46 46 45 45 45 46 46 48 51 53 55 56 57 57 58 59 60 61 60 59 60
54 49 47 47 44 43 40 39 39 38 38 36 36 36 36 35 35 38 38 35 37 43 43 43 43 42 42 43 43 44 46 47 51 53 55 58 56 58 59 60 60 60 59
49 48 45 43 42 40 39 38 38 35 35 36 34 32 33 32 30 39 39 38 36 35 40 38 39 38 38 40 41 41 42 44 46 48 51 56 57 57 59 59 59 59 59
44 43 41 41 40 38 38 37 35 35 32 32 30 27 28 30 29 32 38 38 38 38 37 36 37 37 34 35 38 38 40 40 43 45 46 49 53 56 57 58 59 57 57
41 40 40 40 36 34 34 35 35 33 33 34 32 28 30 28 29 33 37 36 35 35 34 34 33 29 31 30 32 34 39 38 40 43 45 45 47 50 56 57 58 57 56
38 38 35 36 36 35 37 36 33 31 31 33 32 24 23 23 30 33 32 32 33 34 32 31 29 29 27 28 29 31 37 37 39 39 41 44 45 46 49 54 56 57 54
35 34 37 35 35 34 34 36 35 31 27 30 33 29 21 20 20 27 30 29 29 31 28 27 28 27 27 27 29 33 34 37 39 38 38 39 43 45 46 49 55 56 54
36 36 37 36 36 34 31 35 35 34 31 29 30 29 26 21 22 23 24 23 26 25 25 23 26 22 23 25 25 29 33 36 36 36 36 38 40 43 46 46 51 55 55
39 38 37 37 36 34 34 34 33 34 30 25 26 25 25 25 23 21 21 22 18 18 18 19 23 20 19 18 20 29 35 34 33 34 36 37 39 42 44 46 47 53 54
38 37 36 35 35 34 35 36 33 30 29 28 25 24 23 21 19 17 15 16 15 14 14 15 18 21 20 19 16 18 31 34 33 33 35 38 39 41 42 44 45 50 53
23 22 24 34 36 36 37 33 32 32 30 26 22 20 18 17 15 14 14 13 13 13 14 16 16 17 19 19 18 21 28 31 33 32 35 40 41 41 43 45 45 47 52
16 18 25 29 34 36 35 34 32 33 27 23 21 19 18 18 17 17 16 15 13 13 14 14 15 15 16 18 19 23 22 25 33 31 35 40 40 39 43 44 46 47 50
20 25 30 32 36 36 35 35 34 29 26 24 22 22 20 18 17 17 17 16 16 15 15 14 15 14 13 15 16 19 19 23 32 32 31 38 41 42 42 43 42 45 48
22 26 34 36 36 37 35 33 29 26 24 21 21 20 18 17 17 17 16 17 18 19 16 14 12 13 14 15 16 17 18 22 27 32 31 34 39 40 41 43 43 39 38
25 27 32 34 37 37 35 29 25 22 20 19 18 18 19 17 17 18 17 17 17 16 16 12 11 13 15 14 18 20 20 21 21 30 30 34 38 38 39 40 44 42 43
25 26 30 32 35 33 29 27 28 20 18 19 19 19 20 19 18 18 18 17 16 14 12 12 13 14 15 17 19 19 20 19 20 31 32 32 37 37 38 39 41 44 45
27 28 28 30 32 30 28 29 26 18 18 19 20 20 20 19 19 19 17 16 15 15 15 15 14 15 16 16 16 19 19 17 26 26 33 33 32 36 37 37 39 41 41
28 29 29 29 29 28 28 24 20 19 20 21 22 22 21 21 19 17 17 15 15 18 19 18 16 14 15 15 16 18 18 20 22 26 28 31 29 33 35 36 38 40 40
29 29 28 29 30 28 25 20 20 22 22 22 23 22 22 19 17 17 16 15 15 18 17 15 14 14 14 13 15 16 21 22 20 22 18 17 23 27 31 35 38 39 38
28 29 27 26 25 23 20 23 23 24 23 20 19 17 14 16 16 16 16 16 15 15 15 15 15 15 17 14 13 14 19 17 21 27 20 17 20 25 27 32 35 38 39
27 27 28 28 27 23 29 27 21 18 18 16 14 12 13 13 14 16 16 16 17 16 18 17 18 17 16 17 15 17 22 20 15 27 22 16 20 18 23 23 35 36 36
27 26 28 29 28 28 26 23 21 17 17 14 13 12 12 11 14 14 14 16 19 20 19 19 16 17 18 17 15 14 14 19 20 18 26 17 16 17 17 19 27 34 35
25 24 24 27 26 23 21 20 19 18 15 13 13 13 13 14 14 16 16 15 11 11 10 13 15 17 19 20 22 18 18 18 19 17 17 16 16 18 21 20 23 26 34
24 23 25 24 23 21 19 18 18 19 18 17 15 13 13 13 15 16 15 13 11 9 14 17 16 17 18 19 21 18 16 15 19 14 13 17 13 17 18 21 23 23 28
23 21 22 23 18 20 17 17 17 19 19 18 16 12 11 16 16 15 14 14 13 13 14 14 15 14 15 17 20 20 16 16 16 16 15 13 12 15 17 18 22 23 24